User: anonymous   Login
Location: Unspecified
(0.0000°N, 0.0000°E)
Time: 17:41:52
(UTC+01:00)
Language:

Cosmos 1515 Rocket - Orbit

View from above orbital plane
View from above orbital plane
View from above satellite
View from above satellite

Ground track
Ground track

The orbit data is extracted from the following two-line orbital elements,

1 14552U 83122B   14302.84335405  .00000636  00000-0  75251-4 0    96
2 14552 082.5250 256.3749 0019042 089.9890 299.1535 14.82940173666681
Epoch (UTC): 29 October 2014 20:14:25
Eccentricity: 0.0019042
inclination: 82.5250°
perigee height: 607 km
apogee height: 633 km
right ascension of ascending node: 256.3749°
argument of perigee: 89.9890°
revolutions per day: 14.82940173
mean anomaly at epoch: 299.1535°
orbit number at epoch: 66668

The dashed part of the orbit path shows where the satellite is in the earth's shadow,  

DLR